Location: �clusier
(49.9361°N, 2.7869°E)
Time: 07:07:32
(UTC+00:00)

FALCON 9 DEB - Pass Details

Date: 16 June 2021
Orbit: 358 x 373 km, 53.0° (Epoch: 02 August)

Event Time Altitude Azimuth Distance (km) Brightness Sun altitude
Exits shadow 23:21:07 17° 244° (WSW) 1,049 4.9 -16.4°
Maximum altitude 23:23:23 85° 157° (SSE) 387 2.7 -16.5°
Drops below altitude 10° 23:26:31 10° 69° (ENE) 1,398 5.9 -16.5°
Sets 23:28:34 0° 69° (ENE) 2,249 7.0 -16.5°
